Location: Home
(42.5358°N, 72.7383°W)
Time: 11:46:04
(UTC-04:00)

N. Korean satellite - Visible Passes

Search period start: 17 August 2022 00:00
Search period end: 27 August 2022 00:00
Orbit: 433 x 470 km, 97.3° (Epoch: 16 August)

Date Brightness Start Highest point End Pass type
(mag) Time Alt. Az. Time Alt. Az. Time Alt. Az.
18 Aug 9.7 05:04:11 10° ENE 05:05:42 12° E 05:07:10 10° ESE visible
20 Aug 9.1 05:26:32 10° NE 05:29:24 23° E 05:32:15 10° SSE visible
23 Aug 9.5 05:15:42 10° NE 05:18:05 17° E 05:20:26 10° SE visible
26 Aug 9.7 05:05:01 10° ENE 05:06:31 12° E 05:08:00 10° ESE visible
